Location: Lourdes
(43.1000°N, 0.0500°W)
Time: 10:22:36
(UTC+00:00)

Cosmos 1151 Rocket - Pass Details

Date: 18 April 2021
Orbit: 593 x 614 km, 82.5° (Epoch: 08 May)

Event Time Altitude Azimuth Distance (km) Brightness Sun altitude
Exits shadow 00:46:10 14° 336° (NNW) 1,728 5.8 -35.0°
Drops below altitude 10° 00:46:53 10° 343° (NNW) 1,952 6.2 -35.0°
Sets 00:49:27 0° 357° (N) 2,865 7.4 -34.9°
